GW3192 Weather Reports


Display with metric or nautical units.
time (UTC)temp
F
wind
direction
speed
MPH
gust
MPH
rain 1hr
in
rain 24hr
in
rain mn
in
humidity
%
barometer
mb
20260906170008 75 95 1.0 8.0 0.00 0.00 0.00 82 1019.9
20260906164514 74 98 1.0 9.0 0.00 0.00 0.00 85 1020.1
20260906163039 74 128 4.0 11.0 0.00 0.00 0.00 84 1020.0
20260906161532 74 138 2.0 9.0 0.00 0.00 0.00 83 1020.0
20260906160031 73 141 3.0 9.0 0.00 0.00 0.00 85 1020.0
20260906154513 72 131 1.0 7.0 0.00 0.00 0.00 87 1019.9
20260906153038 71 111 0.0 5.0 0.00 0.00 0.00 89 1020.2
20260906151528 71 136 1.0 7.0 0.00 0.00 0.00 89 1020.3
20260906150028 70 130 1.0 5.0 0.00 0.00 0.00 91 1020.2
20260906144533 70 113 0.0 3.0 0.00 0.00 0.00 92 1020.1
20260906143014 69 98 0.0 7.0 0.00 0.00 0.00 92 1020.2
20260906141519 69 113 1.0 6.0 0.00 0.00 0.00 92 1020.2
20260906140035 69 122 1.0 7.0 0.00 0.00 0.00 93 1020.1
20260906134536 69 117 1.0 7.0 0.00 0.00 0.00 92 1020.1
20260906133029 69 119 0.0 7.0 0.00 0.00 0.00 93 1019.9
20260906131522 69 146 2.0 7.0 0.00 0.00 0.00 93 1019.5
20260906130027 69 136 1.0 9.0 0.00 0.00 0.00 93 1019.4
20260906124535 69 140 1.0 8.0 0.00 0.00 0.00 93 1019.3
20260906123031 69 116 1.0 9.0 0.00 0.00 0.00 94 1019.3
20260906121533 69 121 1.0 7.0 0.00 0.00 0.00 94 1019.1
20260906120019 69 127 0.0 3.0 0.00 0.00 0.00 94 1018.9
20260906114527 69 121 0.0 3.0 0.00 0.00 0.00 94 1018.5
20260906113031 69 123 0.0 2.0 0.00 0.00 0.00 94 1018.7
20260906111533 69 123 0.0 4.0 0.00 0.00 0.00 94 1018.6
20260906110018 69 119 0.0 3.0 0.00 0.00 0.00 94 1018.5
20260906104526 69 119 0.0 3.0 0.00 0.00 0.00 94 1018.6
20260906103033 69 119 0.0 4.0 0.00 0.00 0.00 94 1018.7
20260906101507 68 94 0.0 0.0 0.00 0.00 0.00 94 1018.5
20260906100013 68 94 0.0 0.0 0.00 0.00 0.00 94 1018.5
20260906094518 69 94 0.0 0.0 0.00 0.00 0.00 93 1018.3
20260906093035 69 94 0.0 0.0 0.00 0.00 0.00 93 1018.1
20260906091528 69 94 0.0 4.0 0.00 0.00 0.00 93 1017.8
20260906090013 69 89 0.0 1.0 0.00 0.00 0.00 93 1017.4
20260906084517 69 86 0.0 4.0 0.00 0.00 0.00 93 1017.6
20260906083023 69 83 0.0 6.0 0.00 0.00 0.00 92 1017.4
20260906081533 70 82 0.0 7.0 0.00 0.00 0.00 92 1017.5
20260906080035 70 83 1.0 8.0 0.00 0.00 0.00 91 1017.6
20260906074534 70 107 0.0 6.0 0.00 0.00 0.00 91 1017.4
20260906073024 70 92 0.0 6.0 0.00 0.00 0.00 90 1017.5
20260906071532 71 89 1.0 4.0 0.00 0.00 0.00 90 1017.8
20260906070030 71 71 1.0 6.0 0.00 0.00 0.00 90 1017.7
20260906064536 71 74 0.0 6.0 0.00 0.00 0.00 90 1017.9
20260906063035 71 76 1.0 5.0 0.00 0.00 0.00 90 1017.9
20260906061523 71 82 0.0 4.0 0.00 0.00 0.00 90 1018.2
20260906060028 72 82 0.0 4.0 0.00 0.00 0.00 90 1018.1
20260906054533 72 82 0.0 7.0 0.00 0.00 0.00 90 1018.1
20260906053031 72 88 1.0 6.0 0.00 0.00 0.00 89 1017.9
20260906051516 72 91 0.0 4.0 0.00 0.00 0.00 89 1017.9
20260906050024 73 92 0.0 4.0 0.00 0.00 0.00 89 1017.6
20260906044533 73 89 0.0 3.0 0.00 0.00 0.00 88 1017.7
20260906043037 73 88 0.0 3.0 0.00 0.00 0.00 88 1017.6
20260906041541 74 80 1.0 4.0 0.00 0.00 0.00 88 1017.5
20260906040024 74 71 0.0 3.0 0.00 0.00 0.00 88 1017.6
20260906034529 74 72 0.0 5.0 0.00 0.00 0.00 88 1017.7
20260906033031 75 70 0.0 6.0 0.00 0.00 0.00 88 1017.8
20260906031532 75 72 4.0 9.0 0.00 0.00 0.00 87 1017.5
20260906030037 75 71 2.0 8.0 0.00 0.00 0.00 87 1017.3
20260906024523 76 69 1.0 4.0 0.00 0.00 0.00 86 1017.0
20260906023044 76 73 0.0 5.0 0.00 0.00 0.00 86 1016.9
20260906021532 76 77 1.0 5.0 0.00 0.00 0.00 86 1016.7
20260906020016 76 77 0.0 2.0 0.00 0.00 0.00 85 1016.6
20260906014532 76 78 1.0 4.0 0.00 0.00 0.00 85 1016.3
20260906013034 76 78 0.0 3.0 0.00 0.00 0.00 84 1016.1
20260906011506 77 80 0.0 3.0 0.00 0.00 0.00 83 1016.0
20260906010011 77 80 0.0 7.0 0.00 0.00 0.00 83 1015.9
20260906004533 77 88 0.0 4.0 0.00 0.00 0.00 83 1016.1
20260906003028 77 88 0.0 5.0 0.00 0.00 0.00 83 1016.0
20260906001535 78 95 2.0 6.0 0.00 0.00 0.00 82 1015.8
20260906000010 79 80 0.0 8.0 0.00 0.00 0.00 81 1015.7
20260905234535 79 71 0.0 8.0 0.00 0.00 0.00 81 1015.7
20260905233057 80 79 2.0 5.0 0.00 0.00 0.00 80 1015.6
20260905231549 80 79 1.0 9.0 0.00 0.00 0.00 79 1015.5
20260905230045 81 55 4.0 9.0 0.00 0.00 0.00 79 1015.5
20260905224518 81 56 5.0 10.0 0.00 0.00 0.00 79 1015.5
20260905223034 82 60 4.0 10.0 0.00 0.00 0.00 79 1015.2
20260905221533 82 47 3.0 10.0 0.00 0.00 0.00 78 1015.1
20260905220030 83 79 2.0 13.0 0.00 0.00 0.00 78 1014.8
20260905214531 84 57 7.0 15.0 0.00 0.00 0.00 77 1014.6
20260905213015 84 66 3.0 14.0 0.00 0.00 0.00 77 1014.8
20260905211537 84 56 5.0 12.0 0.00 0.00 0.00 78 1015.0
20260905210035 84 38 4.0 11.0 0.00 0.00 0.00 79 1015.1
20260905204531 84 70 3.0 11.0 0.00 0.00 0.00 79 1015.2
20260905203032 84 60 5.0 9.0 0.00 0.00 0.00 78 1015.5
20260905201525 84 71 5.0 13.0 0.00 0.00 0.00 79 1015.6
20260905200023 83 78 7.0 12.0 0.00 0.00 0.00 80 1015.8
20260905194537 82 51 6.0 12.0 0.00 0.00 0.00 82 1016.0
20260905193033 82 25 6.0 12.0 0.00 0.00 0.00 82 1016.0
20260905191533 82 49 4.0 13.0 0.00 0.00 0.00 82 1016.6
20260905190056 82 30 7.0 14.0 0.00 0.00 0.00 82 1016.8
20260905184537 83 24 6.0 14.0 0.00 0.00 0.00 82 1016.9
20260905183028 83 61 6.0 12.0 0.00 0.00 0.00 82 1017.0
20260905181531 83 43 7.0 15.0 0.00 0.00 0.00 81 1016.7
20260905180036 85 42 5.0 10.0 0.00 0.00 0.00 79 1016.9
20260905174544 85 49 3.0 6.0 0.00 0.00 0.00 79 1017.0
20260905173040 85 65 5.0 10.0 0.00 0.00 0.00 77 1016.8
20260905171531 85 55 2.0 8.0 0.00 0.00 0.00 78 1016.7